[[{"header":{"parameterUnit":"m.s-1","parameterCategory":1,"la1":30.2991,"la2":30.254,"lo1":-89.0895,"lo2":-89.0444,"dy":0.0017,"dx":0.0017,"nx":28,"ny":28,"refTime":"2023-11-22T03:00:00:Z","depth":0,"parameterNumber":2,"parameterNumberName":"U-component_of_WINDS"},"data":[0,0,0,0,0,0,0,0,0,0,0,0,0,0,0,0,0,0,0,0,0,0,0,0,0,0,0,0,0,0,0,0,0,0,0,0,0,0,0,0,0,0,0,0,0,0,0,0,0,0,0,0,0,0,0,0,0,0,2.7643,2.7644,0,2.771,2.7711,2.7711,2.7695,2.7693,2.7692,2.7691,2.7757,2.776,2.7763,0,0,0,0,0,0,0,0,0,0,0,0,0,2.7501,2.7503,2.7643,2.7644,2.7645,2.771,2.7711,2.7712,2.7695,2.7693,2.7692,2.769,2.7756,2.776,2.7763,0,0,0,0,0,0,0,0,0,0,0,0,0,2.7564,2.7504,2.7643,2.7644,2.7645,2.771,2.7711,2.7712,2.7695,2.7693,2.7691,2.769,2.7755,2.7759,2.7764,2.783,0,0,2.7778,2.7779,0,0,0,0,0,0,0,0,2.7561,2.757,2.7643,2.7644,2.7645,2.7692,2.7685,2.7751,2.7696,2.7676,2.7691,2.7689,2.7737,2.7743,2.776,2.7834,2.7836,2.7778,2.7781,2.7783,2.7784,0,0,0,0,0,0,0,2.7556,2.7567,2.7669,2.7644,2.7646,2.7641,2.7648,2.7697,2.7717,2.7678,2.7677,2.7685,2.7737,2.7755,2.7761,2.7837,2.7778,2.7782,2.7785,2.7786,2.7972,2.7974,0,0,0,0,0,0,2.7551,2.7563,2.7667,2.7671,2.7597,2.7646,2.7653,2.7679,2.7716,2.772,2.7686,2.7684,2.7749,2.7756,2.7763,2.7845,2.7783,2.7787,2.7789,2.797,2.7972,2.7975,0,0,0,0,0,0,2.7548,2.7561,2.7664,2.7617,2.763,2.765,2.7679,2.7681,2.7699,2.7723,2.7726,2.7702,2.7747,2.7757,2.7815,2.7847,2.7789,2.7793,2.7967,2.797,2.7973,2.8008,0,0,0,0,0,0,2.7544,2.756,2.7585,2.7618,2.7633,2.7715,2.7681,2.7684,2.7707,2.7705,2.7738,2.7741,2.7747,2.7808,2.7819,2.7852,2.7796,2.7964,2.7968,2.7972,2.8004,2.8013,2.8019,0,0,0,0,0,2.7539,2.7591,2.7586,2.7599,2.7665,2.7717,2.7725,2.7731,2.771,2.7736,2.7751,2.774,2.7842,2.7814,2.7826,2.7861,2.7962,2.7967,2.7972,2.8001,2.8011,2.8019,0,0,0,0,0,0,2.756,2.7595,2.759,2.7655,2.7683,2.7714,2.7746,2.7741,2.7775,2.7771,2.7776,2.7783,2.7843,2.7858,2.7826,2.7929,2.7899,2.7907,2.7917,2.7926,2.7934,2.7929,2.78,0,0,0,0,0,2.7573,2.7613,2.7641,2.7695,2.7709,2.7726,2.7748,2.7751,2.778,2.7791,2.7811,2.7839,2.7878,2.7903,2.7939,2.8007,2.8014,2.8037,2.8045,2.8051,2.8057,2.8096,2.8107,2.7991,2.7991,2.7991,0,0,2.7598,2.7622,2.7647,2.77,2.7722,2.7763,2.7736,2.7779,2.781,2.7798,2.7854,2.7869,2.7902,2.7965,2.7994,2.7979,2.8091,2.8057,2.8062,2.8065,2.8102,2.8113,2.8123,2.7995,2.7994,2.7994,0,0,2.7666,2.7688,2.7736,2.776,2.7794,2.7805,2.7817,2.7849,2.786,2.7916,2.7908,2.7945,2.8011,2.8035,2.8055,2.8135,2.8127,2.8147,2.8186,2.8224,2.8233,2.8241,2.8271,2.8281,2.8153,2.8154,2.8154,0,2.7693,2.7755,2.7761,2.7807,2.7831,2.7824,2.7873,2.7895,2.7939,2.7956,2.794,2.8024,2.8045,2.8115,2.8135,2.8151,2.8165,2.8143,2.8231,2.8239,2.8247,2.8275,2.8286,2.8156,2.8156,2.8155,2.8155,0,2.7787,2.7831,2.7865,2.791,2.7938,2.7985,2.7999,2.8027,2.8028,2.804,2.8099,2.8125,2.8167,2.8184,2.8184,2.8254,2.8245,2.823,2.82,2.826,2.8287,2.8298,2.8159,2.8158,2.8158,2.8157,0,0,2.7868,2.7918,2.7931,2.7952,2.7991,2.8025,2.8072,2.8115,2.8139,2.8171,2.8211,2.8269,2.8256,2.828,2.8283,2.8316,2.8379,2.8297,2.8298,2.8312,2.846,2.8471,2.8484,2.8374,2.8376,2.8378,2.8458,0,2.794,2.8025,2.8033,2.8109,2.815,2.8144,2.8186,2.8214,2.8228,2.8265,2.828,2.8321,2.8301,2.8315,2.8348,2.8365,2.8409,2.8359,2.8412,2.8414,2.8405,2.8498,2.8509,2.8583,2.8468,2.847,2.8471,0,2.8035,2.8071,2.8151,2.8187,2.8204,2.8241,2.8283,2.8318,2.835,2.8358,2.8386,2.8386,2.8435,2.8404,2.8473,2.8439,2.8462,2.8474,2.8477,2.8482,2.8446,2.8506,2.8607,2.8618,2.8487,2.8486,2.8485,0,2.8087,2.8156,2.8213,2.8232,2.8274,2.8301,2.8319,2.8351,2.8377,2.8413,2.843,2.8471,2.8493,2.8525,2.8536,2.8512,2.8605,2.8574,2.8613,2.8613,2.8633,2.8632,2.8739,2.8647,2.8647,2.8647,2.8646,0,2.8167,2.8216,2.8238,2.8273,2.8329,2.8339,2.8394,2.8411,2.8439,2.8478,2.8476,2.8512,2.8524,2.8563,2.8572,2.8629,2.8638,2.8647,2.8648,2.8647,2.8646,2.8662,2.8657,2.865,2.8649,2.8648,2.8648,0,2.8234,2.8251,2.8313,2.8349,2.836,2.8399,2.843,2.8465,2.8479,2.8528,2.854,2.8563,2.8609,2.8623,2.8677,2.8684,2.875,2.8747,2.874,2.874,2.8779,2.8775,2.8901,2.8918,2.8814,2.8815,2.8815,0,2.8284,2.8322,2.8363,2.839,2.841,2.8452,2.848,2.8491,2.852,2.8562,2.8591,2.8637,2.8674,2.8748,2.8769,2.8811,2.881,2.8851,2.8816,2.8814,2.8811,2.8809,2.8814,2.8857,2.8858,2.8859,2.886,0,2.8371,2.8378,2.8417,2.8461,2.8494,2.8528,2.8561,2.8583,2.86,2.8632,2.868,2.8709,2.8766,2.8812,2.8856,2.8875,2.8871,2.8871,2.8883,2.8882,2.8876,2.8881,2.8758,2.8868,2.8867,2.8866,2.8866,2.8866,2.8431,2.8466,2.8501,2.8546,2.8573,2.8604,2.8639,2.8659,2.8699,2.8747,2.8752,2.8803,2.8837,2.8896,2.8918,2.8959,2.8947,2.8963,2.8968,2.8972,2.8975,2.887,2.8967,2.8966,2.8966,2.8966,2.8966,0,2.8519,2.8542,2.8583,2.8631,2.8667,2.8661,2.8698,2.8728,2.8774,2.8806,2.8844,2.89,2.8945,2.897,2.9015,2.9043,2.9043,2.9055,2.9053,2.9058,2.8983,2.8969,2.9055,2.9055,2.9055,2.9055,2.9055,2.9055,2.8569,2.8628,2.8639,2.8712,2.8734,2.8786,2.8808,2.8837,2.8864,2.8926,2.8964,2.8981,2.9011,2.9059,2.9101,2.9107,2.9124,2.9138,2.9143,2.9072,2.9063,2.9054,2.9041,2.9141,2.9142,2.9215,2.9216,2.9216]},{"header":{"parameterUnit":"m.s-1","parameterCategory":1,"la1":30.2991,"la2":30.254,"lo1":-89.0895,"lo2":-89.0444,"dy":0.0017,"dx":0.0017,"nx":28,"ny":28,"refTime":"2023-11-22T03:00:00:Z","depth":0,"parameterNumber":3,"parameterNumberName":"V-component_of_WINDS"},"data":[0,0,0,0,0,0,0,0,0,0,0,0,0,0,0,0,0,0,0,0,0,0,0,0,0,0,0,0,0,0,0,0,0,0,0,0,0,0,0,0,0,0,0,0,0,0,0,0,0,0,0,0,0,0,0,0,0,0,-6.5923,-6.5924,0,-6.6023,-6.6024,-6.6026,-6.5988,-6.5986,-6.5983,-6.5981,-6.608,-6.6085,-6.6089,0,0,0,0,0,0,0,0,0,0,0,0,0,-6.5695,-6.57,-6.5922,-6.5924,-6.5925,-6.6023,-6.6024,-6.6026,-6.5988,-6.5986,-6.5983,-6.598,-6.6079,-6.6084,-6.609,0,0,0,0,0,0,0,0,0,0,0,0,0,-6.5795,-6.5701,-6.5922,-6.5918,-6.5919,-6.6023,-6.6025,-6.6026,-6.5989,-6.5986,-6.5982,-6.5979,-6.6077,-6.6084,-6.6091,-6.6203,0,0,-6.6113,-6.6116,0,0,0,0,0,0,0,0,-6.5789,-6.5803,-6.5918,-6.5919,-6.592,-6.599,-6.5981,-6.6085,-6.599,-6.5962,-6.5981,-6.5977,-6.6053,-6.6061,-6.6088,-6.6208,-6.6212,-6.6113,-6.6117,-6.6121,-6.6123,0,0,0,0,0,0,0,-6.5782,-6.5799,-6.5962,-6.5919,-6.5921,-6.5911,-6.5921,-6.6,-6.6025,-6.5964,-6.5962,-6.5975,-6.6052,-6.6081,-6.609,-6.6214,-6.6113,-6.6119,-6.6124,-6.6126,-6.6434,-6.6437,0,0,0,0,0,0,-6.5775,-6.5793,-6.5959,-6.5965,-6.5845,-6.5918,-6.5929,-6.5971,-6.6024,-6.6029,-6.5977,-6.5972,-6.607,-6.6081,-6.6093,-6.623,-6.612,-6.6127,-6.6131,-6.643,-6.6434,-6.6439,0,0,0,0,0,0,-6.5771,-6.5791,-6.5955,-6.5879,-6.5899,-6.5925,-6.5972,-6.5974,-6.6003,-6.6034,-6.6038,-6.6002,-6.6068,-6.6083,-6.6177,-6.6233,-6.613,-6.6137,-6.6425,-6.6431,-6.6437,-6.6504,0,0,0,0,0,0,-6.5764,-6.5789,-6.5832,-6.588,-6.5903,-6.6038,-6.5975,-6.5979,-6.6016,-6.601,-6.6058,-6.6063,-6.6067,-6.6167,-6.6184,-6.6241,-6.6142,-6.642,-6.6428,-6.6435,-6.6497,-6.6511,-6.6524,0,0,0,0,0,-6.5756,-6.5846,-6.5835,-6.5855,-6.5958,-6.6041,-6.6054,-6.6058,-6.602,-6.6064,-6.6085,-6.6062,-6.6224,-6.6177,-6.6196,-6.6256,-6.6417,-6.6426,-6.6434,-6.6491,-6.6508,-6.6523,0,0,0,0,0,0,-6.5802,-6.5852,-6.584,-6.5948,-6.5991,-6.6035,-6.609,-6.6076,-6.6129,-6.6122,-6.6123,-6.6134,-6.6231,-6.6252,-6.6199,-6.6369,-6.6315,-6.6328,-6.6351,-6.6368,-6.6381,-6.6374,-6.6148,0,0,0,0,0,-6.5825,-6.589,-6.5929,-6.602,-6.6043,-6.6063,-6.6099,-6.6099,-6.6143,-6.616,-6.6187,-6.623,-6.6291,-6.633,-6.6388,-6.65,-6.651,-6.6551,-6.6564,-6.6575,-6.6586,-6.6649,-6.6667,-6.6467,-6.6467,-6.6467,0,0,-6.5872,-6.5908,-6.5948,-6.6031,-6.6064,-6.613,-6.6078,-6.615,-6.6199,-6.617,-6.6262,-6.6284,-6.6331,-6.6435,-6.6482,-6.6456,-6.6644,-6.6586,-6.6595,-6.66,-6.666,-6.6679,-6.6695,-6.6473,-6.6472,-6.6471,0,0,-6.5993,-6.6026,-6.6107,-6.6142,-6.6194,-6.6207,-6.6227,-6.6274,-6.6288,-6.638,-6.636,-6.6418,-6.6522,-6.6558,-6.659,-6.6727,-6.6708,-6.6746,-6.6816,-6.6877,-6.6893,-6.6907,-6.6957,-6.6975,-6.6757,-6.6757,-6.6757,0,-6.6045,-6.6145,-6.6149,-6.6224,-6.6262,-6.6241,-6.6323,-6.6356,-6.6424,-6.645,-6.642,-6.6553,-6.6583,-6.6696,-6.673,-6.6756,-6.6778,-6.674,-6.689,-6.6904,-6.6917,-6.6965,-6.6984,-6.6761,-6.6761,-6.676,-6.676,0,-6.6207,-6.6277,-6.6336,-6.6405,-6.6449,-6.6526,-6.6542,-6.6586,-6.6582,-6.6599,-6.6694,-6.673,-6.6796,-6.6822,-6.6818,-6.6936,-6.6918,-6.6889,-6.6835,-6.6941,-6.6986,-6.7004,-6.6767,-6.6766,-6.6765,-6.6764,0,0,-6.6357,-6.643,-6.6451,-6.6483,-6.654,-6.6594,-6.6671,-6.6738,-6.6776,-6.6824,-6.6889,-6.6979,-6.6954,-6.699,-6.699,-6.7044,-6.7152,-6.7009,-6.701,-6.7035,-6.7285,-6.7307,-6.7328,-6.714,-6.7144,-6.7147,-6.7282,0,-6.6483,-6.6621,-6.6628,-6.6753,-6.6818,-6.6801,-6.6868,-6.6911,-6.6929,-6.6986,-6.7005,-6.707,-6.7032,-6.7054,-6.7106,-6.7128,-6.7202,-6.7118,-6.7201,-6.7204,-6.719,-6.7351,-6.7374,-6.7499,-6.7299,-6.7302,-6.7304,0,-6.6648,-6.6704,-6.6836,-6.6886,-6.6914,-6.6974,-6.7037,-6.7092,-6.714,-6.715,-6.7192,-6.7185,-6.7264,-6.7208,-6.7318,-6.726,-6.7295,-6.7311,-6.7316,-6.7324,-6.726,-6.7364,-6.7539,-6.7558,-6.7332,-6.7329,-6.7328,0,-6.6746,-6.6853,-6.6947,-6.6975,-6.7035,-6.7079,-6.7106,-6.7151,-6.7191,-6.7245,-6.7271,-6.7333,-6.7368,-6.7416,-6.7426,-6.7384,-6.7536,-6.748,-6.7546,-6.7546,-6.7579,-6.7576,-6.7763,-6.76,-6.76,-6.76,-6.7599,0,-6.6885,-6.6967,-6.6992,-6.705,-6.7141,-6.7149,-6.7239,-6.7262,-6.7303,-6.7365,-6.7353,-6.7411,-6.7421,-6.7481,-6.7489,-6.758,-6.7595,-6.7604,-6.7606,-6.7606,-6.7605,-6.7628,-6.762,-6.7605,-6.7604,-6.7603,-6.7602,0,-6.7009,-6.703,-6.7131,-6.7181,-6.7196,-6.7261,-6.7304,-6.7359,-6.7377,-6.7455,-6.7474,-6.7501,-6.7572,-6.7587,-6.767,-6.7676,-6.7783,-6.7776,-6.7768,-6.7767,-6.7833,-6.7827,-6.8041,-6.8069,-6.7888,-6.789,-6.7891,0,-6.7097,-6.716,-6.7219,-6.726,-6.729,-6.7357,-6.7399,-6.7409,-6.7453,-6.7514,-6.7562,-6.7632,-6.7688,-6.7802,-6.7829,-6.7893,-6.7887,-6.7957,-6.7896,-6.7895,-6.7889,-6.7885,-6.7892,-6.7969,-6.7971,-6.7972,-6.7974,0,-6.7252,-6.726,-6.7321,-6.7388,-6.7439,-6.749,-6.754,-6.7574,-6.7592,-6.7642,-6.7715,-6.7759,-6.7846,-6.7915,-6.798,-6.8007,-6.7994,-6.7993,-6.8012,-6.8013,-6.8006,-6.8012,-6.78,-6.7988,-6.7987,-6.7985,-6.7985,-6.7984,-6.7361,-6.7417,-6.7468,-6.7538,-6.7577,-6.7624,-6.7679,-6.7705,-6.7767,-6.784,-6.7842,-6.7922,-6.797,-6.8056,-6.8088,-6.815,-6.8128,-6.8155,-6.8162,-6.8168,-6.8175,-6.7996,-6.8162,-6.8161,-6.8161,-6.8161,-6.816,0,-6.7516,-6.7549,-6.7613,-6.7684,-6.7739,-6.7724,-6.7779,-6.7826,-6.7897,-6.7944,-6.8001,-6.8086,-6.8154,-6.8188,-6.8255,-6.8299,-6.8295,-6.8316,-6.8313,-6.832,-6.819,-6.8168,-6.8319,-6.8319,-6.8319,-6.8319,-6.8319,-6.8319,-6.7603,-6.7698,-6.7712,-6.7826,-6.7858,-6.7938,-6.7971,-6.8014,-6.8052,-6.8149,-6.8206,-6.8228,-6.827,-6.8341,-6.8403,-6.8411,-6.8437,-6.8461,-6.8467,-6.8345,-6.8329,-6.8313,-6.8292,-6.8467,-6.8467,-6.8591,-6.8592,-6.8593]}]]